N0JVW-13 Weather Reports


time (UTC)temp
C
wind
direction
speed
KPH
gust
KPH
rain 1hr
cm
rain 24hr
cm
rain mn
cm
humidity
%
barometer
mb
20260504060103 18 257 0.0 3.2 0.00 0.00 0.00 60 1006.4
20260504050558 17 279 0.0 0.0 0.00 0.00 0.00 67 1006.8
20260504045509 18 279 0.0 0.0 0.00 0.00 0.00 66 1006.6
20260504045051 18 279 0.0 0.0 0.00 0.00 0.00 66 1006.5
20260504044526 18 279 0.0 0.0 0.00 0.00 0.00 66 1006.5
20260504044107 18 279 0.0 0.0 0.00 0.00 0.00 65 1006.5
20260504043539 18 279 0.0 0.0 0.00 0.00 0.00 65 1006.4
20260504043014 18 279 0.0 0.0 0.00 0.00 0.00 65 1006.4
20260504042554 18 279 0.0 0.0 0.00 0.00 0.00 65 1006.5
20260504042031 18 279 0.0 1.6 0.00 0.00 0.00 66 1006.3
20260504041506 18 158 0.0 1.6 0.00 0.00 0.00 67 1006.3
20260504041047 18 158 0.0 1.6 0.00 0.00 0.00 68 1006.5
20260504040523 17 158 0.0 0.0 0.00 0.00 0.00 68 1006.3
20260504040108 17 158 0.0 0.0 0.00 0.00 0.00 67 1006.5
20260504035540 17 158 0.0 0.0 0.00 0.00 0.00 68 1006.7
20260504035016 18 158 0.0 0.0 0.00 0.00 0.00 68 1006.8
20260504034555 18 158 0.0 0.0 0.00 0.00 0.00 68 1006.9
20260504034030 18 158 0.0 3.2 0.00 0.00 0.00 67 1006.9
20260504033512 18 158 0.0 3.2 0.00 0.00 0.00 68 1006.9
20260504033049 18 158 0.0 0.0 0.00 0.00 0.00 67 1007.0
20260504032522 18 158 0.0 0.0 0.00 0.00 0.00 66 1007.0
20260504032104 18 158 0.0 0.0 0.00 0.00 0.00 67 1007.0
20260504031558 18 158 0.0 0.0 0.00 0.00 0.00 65 1007.1
20260504031016 18 158 0.0 0.0 0.00 0.00 0.00 65 1007.1
20260504030556 18 158 0.0 0.0 0.00 0.00 0.00 66 1007.0
20260504030040 18 158 0.0 0.0 0.00 0.00 0.00 65 1007.1
20260504025509 18 158 0.0 0.0 0.00 0.00 0.00 64 1007.1
20260504025054 18 158 0.0 0.0 0.00 0.00 0.00 63 1007.1
20260504024526 18 158 0.0 0.0 0.00 0.00 0.00 62 1007.2
20260504024001 19 158 0.0 0.0 0.00 0.00 0.00 62 1007.1
20260504023544 19 158 0.0 0.0 0.00 0.00 0.00 61 1007.0
20260504023019 19 158 0.0 0.0 0.00 0.00 0.00 60 1007.0
20260504022600 19 158 0.0 0.0 0.00 0.00 0.00 59 1007.0
20260504022035 20 158 0.0 0.0 0.00 0.00 0.00 58 1007.1
20260504021512 20 158 0.0 0.0 0.00 0.00 0.00 57 1007.0
20260504021052 20 158 0.0 0.0 0.00 0.00 0.00 57 1007.1
20260504020528 20 158 0.0 0.0 0.00 0.00 0.00 56 1007.0
20260504020004 20 158 0.0 0.0 0.00 0.00 0.00 55 1007.1
20260504015546 20 158 0.0 0.0 0.00 0.00 0.00 55 1007.1
20260504015022 21 158 0.0 0.0 0.00 0.00 0.00 53 1007.0
20260504014602 21 158 0.0 0.0 0.00 0.00 0.00 53 1007.0
20260504014037 21 158 0.0 0.0 0.00 0.00 0.00 54 1007.1
20260504013513 21 158 0.0 0.0 0.00 0.00 0.00 52 1007.0
20260504013059 22 158 0.0 0.0 0.00 0.00 0.00 52 1007.0
20260504012530 22 158 0.0 0.0 0.00 0.00 0.00 50 1007.0
20260504012006 22 158 0.0 0.0 0.00 0.00 0.00 49 1006.9
20260504011553 22 158 0.0 0.0 0.00 0.00 0.00 48 1006.9
20260504011022 22 158 0.0 0.0 0.00 0.00 0.00 47 1006.9
20260504010604 23 158 0.0 0.0 0.00 0.00 0.00 46 1006.8
20260504010044 23 158 0.0 0.0 0.00 0.00 0.00 45 1006.9
20260504005516 23 158 0.0 0.0 0.00 0.00 0.00 43 1007.0
20260504005056 23 158 0.0 0.0 0.00 0.00 0.00 42 1007.0
20260504004532 23 158 0.0 0.0 0.00 0.00 0.00 39 1007.0
20260504004009 23 158 0.0 0.0 0.00 0.00 0.00 38 1007.0
20260504003551 24 158 0.0 0.0 0.00 0.00 0.00 36 1006.9
20260504003026 24 158 0.0 0.0 0.00 0.00 0.00 36 1007.0
20260504002504 25 158 0.0 0.0 0.00 0.00 0.00 34 1007.0
20260504002044 25 158 0.0 0.0 0.00 0.00 0.00 34 1007.0
20260504001520 25 248 0.0 0.0 0.00 0.00 0.00 33 1007.0
20260504001101 25 248 0.0 1.6 0.00 0.00 0.00 32 1007.0
20260504000538 26 248 0.0 1.6 0.00 0.00 0.00 30 1007.0
20260504000013 26 248 0.0 4.8 0.00 0.00 0.00 30 1007.0
20260503235553 26 248 0.0 6.4 0.00 0.00 0.00 30 1007.0
20260503235029 26 172 1.6 6.4 0.00 0.00 0.00 29 1007.0
20260503234508 26 259 0.0 6.4 0.00 0.00 0.00 28 1007.1
20260503234046 26 259 0.0 1.6 0.00 0.00 0.00 29 1007.2
20260503233521 26 258 0.0 1.6 0.00 0.00 0.00 28 1007.2
20260503233102 26 258 0.0 3.2 0.00 0.00 0.00 27 1007.2
20260503232535 27 268 0.0 4.8 0.00 0.00 0.00 26 1007.2
20260503232012 27 285 0.0 6.4 0.00 0.00 0.00 27 1007.2
20260503231555 27 298 0.0 6.4 0.00 0.00 0.00 27 1007.1
20260503231028 27 305 0.0 4.8 0.00 0.00 0.00 27 1007.2
20260503230505 27 314 0.0 4.8 0.00 0.00 0.00 30 1007.2
20260503230046 27 276 0.0 4.8 0.00 0.00 0.00 29 1007.2
20260503225524 27 290 0.0 4.8 0.00 0.00 0.00 30 1007.3
20260503225105 27 264 0.0 4.8 0.00 0.00 0.00 31 1007.3
20260503224542 27 276 0.0 4.8 0.00 0.00 0.00 31 1007.4
20260503224017 27 299 1.6 8.0 0.00 0.00 0.00 30 1007.5
20260503223557 27 273 1.6 8.0 0.00 0.00 0.00 31 1007.5
20260503223035 27 293 0.0 4.8 0.00 0.00 0.00 33 1007.6
20260503222510 27 279 0.0 4.8 0.00 0.00 0.00 34 1007.6
20260503222051 27 277 0.0 4.8 0.00 0.00 0.00 33 1007.7
20260503221525 27 301 0.0 4.8 0.00 0.00 0.00 34 1007.7
20260503221003 27 315 0.0 6.4 0.00 0.00 0.00 35 1007.8
20260503220542 26 259 0.0 6.4 0.00 0.00 0.00 38 1007.8
20260503220019 26 328 0.0 4.8 0.00 0.00 0.00 38 1007.8
20260503215559 26 328 0.0 4.8 0.00 0.00 0.00 38 1007.9
20260503215034 27 272 0.0 11.3 0.00 0.00 0.00 37 1008.0
20260503214513 27 297 1.6 11.3 0.00 0.00 0.00 36 1008.0
20260503214055 27 305 0.0 1.6 0.00 0.00 0.00 39 1008.1
20260503213528 27 305 0.0 3.2 0.00 0.00 0.00 39 1008.1
20260503213004 26 308 0.0 4.8 0.00 0.00 0.00 40 1008.2
20260503212546 26 316 0.0 4.8 0.00 0.00 0.00 39 1008.2
20260503212022 26 264 0.0 8.0 0.00 0.00 0.00 38 1008.3
20260503211622 26 260 0.0 8.0 0.00 0.00 0.00 39 1008.5
20260503211040 26 314 0.0 3.2 0.00 0.00 0.00 38 1008.5
20260503210513 26 274 0.0 3.2 0.00 0.00 0.00 39 1008.6
20260503210054 26 269 0.0 4.8 0.00 0.00 0.00 39 1008.7
20260503205529 26 309 0.0 4.8 0.00 0.00 0.00 39 1008.8
20260503205005 26 156 0.0 3.2 0.00 0.00 0.00 41 1008.9
20260503204600 26 185 0.0 9.7 0.00 0.00 0.00 41 1009.0
20260503204020 26 262 0.0 9.7 0.00 0.00 0.00 41 1009.1
20260503203601 26 264 1.6 4.8 0.00 0.00 0.00 39 1009.2
20260503203040 26 301 0.0 6.4 0.00 0.00 0.00 43 1009.3
20260503202514 26 282 0.0 6.4 0.00 0.00 0.00 40 1009.4
20260503202056 26 245 0.0 4.8 0.00 0.00 0.00 42 1009.3
20260503201530 25 316 1.6 8.0 0.00 0.00 0.00 40 1009.4
20260503201005 25 295 1.6 6.4 0.00 0.00 0.00 39 1009.5
20260503200546 25 311 1.6 6.4 0.00 0.00 0.00 39 1009.7
20260503200023 25 295 1.6 4.8 0.00 0.00 0.00 40 1009.7
20260503195604 25 182 0.0 3.2 0.00 0.00 0.00 41 1009.8
20260503195039 25 274 0.0 4.8 0.00 0.00 0.00 41 1009.8
20260503194521 25 309 1.6 4.8 0.00 0.00 0.00 40 1009.9
20260503194058 25 258 0.0 4.8 0.00 0.00 0.00 42 1010.0
20260503193532 25 288 0.0 4.8 0.00 0.00 0.00 40 1010.1
20260503193008 25 168 0.0 9.7 0.00 0.00 0.00 43 1010.1
20260503192549 25 308 0.0 9.7 0.00 0.00 0.00 42 1010.2
20260503192023 25 322 1.6 4.8 0.00 0.00 0.00 40 1010.3
20260503191607 25 301 0.0 3.2 0.00 0.00 0.00 41 1010.3
20260503191038 24 285 0.0 3.2 0.00 0.00 0.00 42 1010.4
20260503190516 24 245 0.0 3.2 0.00 0.00 0.00 42 1010.4
20260503190056 24 295 0.0 4.8 0.00 0.00 0.00 41 1010.5
20260503185531 24 297 1.6 4.8 0.00 0.00 0.00 41 1010.6
20260503185005 24 265 0.0 4.8 0.00 0.00 0.00 41 1010.6
20260503184604 24 264 1.6 6.4 0.00 0.00 0.00 42 1010.7
20260503184022 24 283 0.0 6.4 0.00 0.00 0.00 44 1010.8
20260503183603 24 331 1.6 6.4 0.00 0.00 0.00 41 1010.8
20260503183045 24 283 0.0 4.8 0.00 0.00 0.00 42 1010.8
20260503182515 23 269 0.0 6.4 0.00 0.00 0.00 41 1010.8
20260503182056 23 254 0.0 6.4 0.00 0.00 0.00 45 1010.9
20260503181533 23 333 0.0 11.3 0.00 0.00 0.00 45 1011.0
20260503181008 23 327 3.2 11.3 0.00 0.00 0.00 43 1011.1
20260503180549 23 134 0.0 6.4 0.00 0.00 0.00 46 1011.2
20260503180030 23 306 0.0 6.4 0.00 0.00 0.00 45 1011.2
20260503175606 23 302 1.6 8.0 0.00 0.00 0.00 45 1011.3
20260503175040 23 248 3.2 8.0 0.00 0.00 0.00 44 1011.4
20260503174522 23 238 0.0 3.2 0.00 0.00 0.00 47 1011.4
20260503174059 22 333 0.0 4.8 0.00 0.00 0.00 48 1011.5
20260503173535 22 221 0.0 6.4 0.00 0.00 0.00 49 1011.8
20260503173013 22 323 0.0 6.4 0.00 0.00 0.00 47 1011.8
20260503172550 22 172 0.0 4.8 0.00 0.00 0.00 48 1011.9
20260503172028 22 148 0.0 9.7 0.00 0.00 0.00 51 1012.0
20260503171508 22 152 0.0 9.7 0.00 0.00 0.00 50 1012.0
20260503171044 21 195 1.6 8.0 0.00 0.00 0.00 51 1012.1
20260503170520 21 252 1.6 6.4 0.00 0.00 0.00 49 1012.4
20260503150535 17 154 1.6 9.7 0.00 0.00 0.00 54 1013.6
20260503131057 11 169 0.0 11.3 0.00 0.00 0.00 62 1014.5
20260503130533 11 146 0.0 6.4 0.00 0.00 0.00 63 1014.6
20260503110537 8 141 0.0 4.8 0.00 0.00 0.00 69 1014.8
20260503081604 8 157 1.6 4.8 0.00 0.00 0.00 69 1016.1
20260503081038 8 160 0.0 4.8 0.00 0.00 0.00 69 1016.1
20260503080516 8 150 0.0 3.2 0.00 0.00 0.00 69 1016.2